WetterOnline ( http://www.wetteronline.de )

Wetter aktuell Garmisch-Partenkirchen

Aktuelles Wetter: Garmisch-Partenkirchen (719m)

6-stündlich | Neueste Meldungen
Ortszeit Temperatur Wetter
So, 21.01. 1:00 0.2° C Schneefall
Sa, 20.01. 19:00 0.6° C Schneefall
Sa, 20.01. 13:00 2.9° C bewölkt
Sa, 20.01. 7:00 -3.1° C bewölkt
Sa, 20.01. 1:00 0.2° C Schneefall
Fr, 19.01. 19:00 0.1° C bewölkt
Fr, 19.01. 13:00 1.4° C Regen
Fr, 19.01. 7:00 0.5° C Schneeregen
Ortszeit Temperatur Wetter
So, 21.01. 1:10 0.2° C Schneefall
So, 21.01. 1:00 0.2° C Schneefall
So, 21.01. 0:40 0.2° C Schneefall
So, 21.01. 0:30 0.2° C Schneefall
So, 21.01. 0:20 0.2° C Schneefall
So, 21.01. 0:10 0.2° C starker Schneefall
So, 21.01. 0:00 0.3° C Schneefall
Sa, 20.01. 23:30 0.3° C starker Schneefall
Sa, 20.01. 23:00 0.3° C leichter Schneefall
Sa, 20.01. 22:30 0.2° C Schneefall
Sa, 20.01. 22:00 0.3° C Schneefall
Ortszeit Relative Feuchte Sichtweite
So, 21.01. 1:00 99% 0.8 km
Sa, 20.01. 19:00 90% 3.0 km
Sa, 20.01. 13:00 65% 70 km
Sa, 20.01. 7:00 97% 26 km
Sa, 20.01. 1:00 97% 1.1 km
Fr, 19.01. 19:00 98% 10 km
Fr, 19.01. 13:00 87% 35 km
Fr, 19.01. 7:00 98% 3.3 km
Ortszeit Relative Feuchte Sichtweite
So, 21.01. 1:10 98% -
So, 21.01. 1:00 99% 0.8 km
So, 21.01. 0:40 97% -
So, 21.01. 0:30 99% 2.0 km
So, 21.01. 0:20 99% -
So, 21.01. 0:10 98% -
So, 21.01. 0:00 97% 0.9 km
Sa, 20.01. 23:30 98% 0.8 km
Sa, 20.01. 23:00 96% 1.8 km
Sa, 20.01. 22:30 98% 0.5 km
Sa, 20.01. 22:00 98% 0.9 km
Ortszeit Niederschlagsmenge Niederschlagsart
So, 21.01. 1:00 15 l/m2 in 6 Std. Schnee
Sa, 20.01. 19:00 0.1 l/m2 in 12 Std. Schnee
Sa, 20.01. 13:00 0.1 l/m2 in 6 Std. Schnee
Sa, 20.01. 7:00 2 l/m2 in 12 Std. Schnee
Sa, 20.01. 1:00 1 l/m2 in 6 Std. Schnee
Fr, 19.01. 19:00 4 l/m2 in 12 Std. Schnee, Regen
Fr, 19.01. 13:00 4 l/m2 in 6 Std. Schnee, Regen
Fr, 19.01. 7:00 20 l/m2 in 12 Std. Schneeschauer
Ortszeit Niederschlagsmenge Niederschlagsart
So, 21.01. 1:10 keine Meldung -
So, 21.01. 1:00 2.9 l/m2 in 1 Std. Schnee
So, 21.01. 0:40 keine Meldung -
So, 21.01. 0:30 1.6 l/m2 in 1 Std. -
So, 21.01. 0:20 keine Meldung -
So, 21.01. 0:10 keine Meldung -
So, 21.01. 0:00 2.2 l/m2 in 1 Std. Schnee
Sa, 20.01. 23:30 1.0 l/m2 in 1 Std. -
Sa, 20.01. 23:00 3.9 l/m2 in 1 Std. Schnee
Sa, 20.01. 22:30 2.1 l/m2 in 1 Std. -
Sa, 20.01. 22:00 2.4 l/m2 in 1 Std. Schnee
Ortszeit Stärke Spitze Richtung
km/h Bft. km/h Grad Sektor
So, 21.01. 1:00 2 1 17 10° N
Sa, 20.01. 19:00 7 2 14 190° S
Sa, 20.01. 13:00 2 1 9 70° O
Sa, 20.01. 7:00 0 0 14 - -
Sa, 20.01. 1:00 6 1 19 100° O
Fr, 19.01. 19:00 4 1 11 350° N
Fr, 19.01. 13:00 6 1 20 40° NO
Fr, 19.01. 7:00 7 2 17 50° NO
Ortszeit Stärke Spitze Richtung
km/h Bft. km/h Grad Sektor
So, 21.01. 1:10 4 1 - 50° NO
So, 21.01. 1:00 2 1 6 10° N
So, 21.01. 0:40 4 1 - 330° NW
So, 21.01. 0:30 0 0 7 - -
So, 21.01. 0:20 0 0 - 190° S
So, 21.01. 0:10 4 1 - 220° SW
So, 21.01. 0:00 4 1 11 330° NW
Sa, 20.01. 23:30 4 1 11 130° SO
Sa, 20.01. 23:00 6 1 11 10° N
Sa, 20.01. 22:30 6 1 7 50° NO
Sa, 20.01. 22:00 0 0 14 - -
Ortszeit Untergrenze Bedeckung Gattung
total tief tief mittel hoch
So, 21.01. 1:00 30 m 8/8 8/8 - - -
Sa, 20.01. 19:00 540 m 8/8 8/8 - - -
Sa, 20.01. 13:00 1500 m 8/8 5/8 - - -
Sa, 20.01. 7:00 1470 m 7/8 7/8 - - -
Sa, 20.01. 1:00 30 m 8/8 8/8 - - -
Fr, 19.01. 19:00 1260 m 7/8 7/8 - - -
Fr, 19.01. 13:00 1380 m 8/8 8/8 - - -
Fr, 19.01. 7:00 60 m 7/8 7/8 - - -
Ortszeit Bedeckungsgrad in Achtel und Wolkenuntergrenze
So, 21.01. 1:10 3(30m) 8(330m)
So, 21.01. 1:00 2(30m) 6(330m) 8(450m)
So, 21.01. 0:40 5(30m) 7(450m)
So, 21.01. 0:30 3(30m) 6(300m) 8(480m)
So, 21.01. 0:20 3(30m) 6(300m) 8(480m)
So, 21.01. 0:10 3(30m) 5(150m) 8(300m)
So, 21.01. 0:00 7(30m) 7(390m) 8(360m)
Sa, 20.01. 23:30 3(30m) 5(270m) 8(450m)
Sa, 20.01. 23:00 5(<30m) 8(420m)
Sa, 20.01. 22:30 8(<30m)
Sa, 20.01. 22:00 5(30m) 7(150m) 8(330m)
Ortszeit Luftdruck NN (hPa) Tendenz (hPa in 3 Std.)
So, 21.01. 1:00 1001 - 0,4
Sa, 20.01. 19:00 1002 - 3,6
Sa, 20.01. 13:00 1011 - 3,1
Sa, 20.01. 7:00 1017 - 0,6
Sa, 20.01. 1:00 1016 + 0,7
Fr, 19.01. 19:00 1015 + 0,2
Fr, 19.01. 13:00 1015 + 0,9
Fr, 19.01. 7:00 1010 + 0,8
Ortszeit Luftdruck NN (hPa) Tendenz (hPa in 3 Std.)
So, 21.01. 1:10 1001 keine Meldung
So, 21.01. 1:00 1001 - 0,4
So, 21.01. 0:40 1001 keine Meldung
So, 21.01. 0:30 1001 - 0,2
So, 21.01. 0:20 1001 keine Meldung
So, 21.01. 0:10 1001 keine Meldung
So, 21.01. 0:00 1001 - 0,3
Sa, 20.01. 23:30 1001 - 0,8
Sa, 20.01. 23:00 1001 - 0,5
Sa, 20.01. 22:30 1002 0,0
Sa, 20.01. 22:00 1002 - 0,8
Ortszeit Schneehöhe (cm)
So, 21.01. 1:00 36
Sa, 20.01. 19:00 25
Sa, 20.01. 13:00 25
Sa, 20.01. 7:00 26
Sa, 20.01. 1:00 25
Fr, 19.01. 19:00 22
Fr, 19.01. 13:00 21
Fr, 19.01. 7:00 21
Ortszeit Schneehöhe (cm)
So, 21.01. 1:10 36
So, 21.01. 1:00 36
So, 21.01. 0:40 36
So, 21.01. 0:30 35
So, 21.01. 0:20 35
So, 21.01. 0:10 35
So, 21.01. 0:00 34
Sa, 20.01. 23:30 34
Sa, 20.01. 23:00 33
Sa, 20.01. 22:30 33
Sa, 20.01. 22:00 32
Link zu dieser Seite / Seite empfehlen

Das Wetter in ...